Simultaneous Nadir Overpasses (SNOs) Predictions

Prediction of SNOs between AQUA and METOP-B Satellite Orbit:

Table of predicted SNOs for the next 14.0 days since TLE Epoch: 3/23/2024
Index Date (AQUA) Time (AQUA) Lat,Lon (AQUA) SZA (AQUA ) Date (METOP-B) Time (METOP-B) Lat,Lon (METOP-B) SZA (METOP-B ) Distance(km) Time Diff (sec)
1 03/23/2024 06:01:41 75.45, 86.62 74.18 03/23/2024 06:00:46 75.45, 86.56 74.19 1.66 55
2 03/23/2024 06:51:05 -75.55,-105.99 105.74 03/23/2024 06:51:26 -75.53,-105.88 105.76 3.66 21
3 03/25/2024 22:13:09 75.46,-156.23 73.13 03/25/2024 22:12:24 75.49,-156.27 73.17 3.46 45
4 03/25/2024 23:02:33 -75.55, 11.17 106.79 03/25/2024 23:03:05 -75.52, 11.15 106.82 3.53 32
5 03/28/2024 14:24:37 75.52, -39.21 72.15 03/28/2024 14:24:03 75.51, -39.14 72.14 2.33 34
6 03/28/2024 15:14:00 -75.55, 128.33 107.83 03/28/2024 15:14:44 -75.54, 128.28 107.85 2.35 44
7 03/31/2024 06:36:02 75.53, 77.95 71.11 03/31/2024 06:35:42 75.51, 77.94 71.10 1.77 20
8 03/31/2024 07:25:25 -75.56,-114.50 108.87 03/31/2024 07:26:22 -75.59,-114.49 108.84 3.11 57
9 04/02/2024 21:57:57 -75.28, 28.18 110.17 04/02/2024 21:56:47 -75.22, 26.81 110.20 39.60 70
10 04/02/2024 22:47:25 75.54,-164.88 70.09 04/02/2024 22:47:20 75.55,-164.88 70.10 0.87 5
11 04/02/2024 23:36:48 -75.57, 2.68 109.89 04/02/2024 23:38:01 -75.58, 2.55 109.89 3.77 73
12 04/05/2024 14:09:21 -75.49, 144.81 110.97 04/05/2024 14:08:18 -75.53, 144.79 110.93 3.86 63
13 04/05/2024 14:58:45 75.55, -47.71 69.08 04/05/2024 14:58:57 75.57, -47.75 69.10 1.86 12



Historial Predications of SNOs between AQUA and METOP-B
